Location: Castillo
(10.5412°N, 66.9523°W)
Time: 03:48:21
(UTC+00:00)

Daily predictions for brighter satellites

Satellite Brightness Start Highest point End
(mag) Time Altitude Azimuth Time Altitude Azimuth Time Altitude Azimuth
Centaur D AC-28 1.8 00:01:05 10° SW 00:05:29 58° SSE 00:08:04 22° ENE
Meteor 1-15 Rocket 4.3 00:01:21 10° N 00:07:10 63° E 00:11:08 21° SSE
X-37B 2.4 00:05:38 10° SSW 00:06:51 20° SSW 00:06:51 20° SSW
Cosmos 292 Rocket 4.3 00:04:50 10° SSW 00:09:37 62° WNW 00:14:23 10° N
Cosmos 1400 Rocket 3.3 00:07:55 10° NNE 00:11:23 37° ENE 00:11:23 37° ENE
Cosmos 2360 Rocket 2.1 00:08:56 10° S 00:14:30 63° ESE 00:20:04 10° NNE
ARIANE 5 R/B 3.2 00:06:28 10° WSW 00:14:54 29° SSW 00:15:45 27° S
ATLAS 3B R/B 2.6 00:09:51 10° S 00:16:10 52° ESE 00:22:27 10° NE
SL-16 R/B 3.5 00:12:06 10° SW 00:17:22 40° WNW 00:22:40 10° N
USA 234 3.3 00:14:27 30° ESE 00:17:50 64° NE 00:24:17 10° NNW
Cosmos 2322 Rocket 2.8 00:12:22 10° SSW 00:17:56 57° WNW 00:23:30 10° N
GPS 2-17 Rocket1 2.9 00:13:38 10° WSW 00:17:58 61° SSE 00:18:37 53° ESE
Cosmos 2251 Rocket 4.3 00:16:44 10° NNW 00:21:49 49° WSW 00:26:11 14° S
Cosmos 1821 Rocket 4.1 00:17:23 10° N 00:23:28 72° W 00:28:59 13° S
Cosmos 407 Rocket 3.5 00:23:12 10° N 00:28:21 59° ENE 00:29:07 53° ESE
OBJECT-B 2.2 00:30:42 30° N 00:30:42 30° N 00:32:30 10° N
Cosmos 1766 3.1 00:25:44 10° N 00:29:35 90° NW 00:29:43 84° S
Sich 1 Rocket 4.1 00:26:28 10° NNW 00:30:45 56° W 00:32:55 27° SSW
Cosmos 2082 3.9 00:25:47 10° NNW 00:31:28 70° WSW 00:34:12 31° S
Cosmos 1378 Rocket 4.4 00:27:34 10° SSW 00:31:43 48° W 00:35:54 10° N
SJ-6B 3.1 00:36:51 63° NNE 00:36:51 63° NNE 00:40:24 10° N
Atlas Centaur 2 3.4 00:34:22 10° WSW 00:36:43 17° SW 00:36:43 17° SW
CSL-04 Rocket 4.4 00:35:44 20° S 00:39:22 50° WSW 00:44:43 10° NNW
Cosmos 1241 Rocket 4.4 00:34:08 10° N 00:40:18 59° ENE 00:41:06 55° E
CZ-3C R/B 3.8 00:37:23 10° W 00:42:43 67° SSW 09:18:34 10° E
Cosmos 1190 Rocket 4.1 00:38:32 10° N 00:43:32 60° ENE 00:43:32 60° ENE
Cosmos 1023 Rocket 4.3 00:41:47 10° NNW 00:47:01 90° WNW 00:47:19 80° S
Helios 1A Rocket 3.5 00:48:49 53° W 00:48:49 53° W 00:52:39 10° NNW
Meteor 2-20 Rocket 4.3 00:49:18 65° SE 00:50:04 74° E 00:56:08 10° N
IRS-1A Rocket 4.5 00:52:02 57° ENE 00:52:02 57° ENE 00:57:29 10° N
Ariane 44LP R/B 4.3 00:44:50 10° WSW 00:52:46 30° SSW 00:52:46 30° SSW
Cosmos 1707 4.2 00:56:43 36° WNW 00:56:43 36° WNW 00:59:52 10° NNW
Cosmos 1934 Rocket 4.1 00:50:53 10° N 00:57:01 72° W 00:58:51 47° SSW
Ariane Rocket 3.7 00:58:54 45° NNE 00:58:54 45° NNE 01:02:34 10° N
FUSE 4.1 00:52:31 10° WNW 00:57:21 65° WSW 00:57:21 65° WSW
Hubble Space Telescope 2.5 00:56:26 10° WNW 00:58:45 29° W 00:58:45 29° W
SL-4 R/B 3.7 01:01:53 10° WSW 01:06:04 35° NW 01:07:51 25° N
Cosmos 1727 Rocket 4.3 01:10:36 47° SW 01:12:13 63° W 01:18:26 10° N
Cosmos 2263 Rocket 2.8 01:14:42 10° NNW 01:18:57 52° NNW 01:18:57 52° NNW
Lacrosse 5 4.3 01:18:30 10° N 01:19:22 13° NNE 01:19:22 13° NNE
Resurs 01 Rocket 4.2 01:29:00 15° N 01:29:00 15° N 01:29:50 10° N
Palapa 6 Rocket 4.3 01:20:38 10° WNW 01:27:13 74° NNW 01:27:13 74° NNW
Cosmos 2333 Rocket 3.4 01:34:20 38° NNW 01:34:20 38° NNW 01:38:05 10° N
Centaur D-1AR AC-39 3.2 01:21:21 10° W 01:32:44 48° NNW 01:32:44 48° NNW
Cosmos 2219 Rocket 3.9 01:37:43 25° N 01:37:43 25° N 01:40:03 10° N
ARIANE 5 R/B 4.5 01:04:29 10° W 01:37:03 67° SSW 01:37:03 67° SSW
ATLAS 5 CENTAUR R/B 4.4 05:03:59 47° NE 05:03:59 47° NE 05:32:29 10° E
CZ-2C R/B 4.4 07:19:00 10° NE 07:21:30 24° ENE 07:21:30 24° ENE
NOSS 3-4 (A) 4.0 07:42:07 45° N 07:42:07 45° N 07:46:12 10° NNE
NOSS 3-4 (C) 4.0 07:42:12 46° N 07:42:12 46° N 07:46:20 10° NNE
Cosmos 1818 4.2 07:42:23 51° NE 07:42:23 51° NE 07:46:24 10° NNE
S3M 4.3 07:35:03 10° N 07:40:03 61° N 07:40:03 61° N
Cosmos 1833 Rocket 4.1 07:45:30 28° NNW 07:45:30 28° NNW 07:48:22 10° N
Atlas 2A Centaur Rocket 4.1 07:49:11 21° E 07:49:11 21° E 07:50:03 10° ENE
ALOS 3.7 07:45:02 10° NE 07:49:10 32° E 07:49:30 31° ESE
ADEOS Rocket 4.4 07:53:19 31° NW 07:53:19 31° NW 07:57:12 10° NNW
ATLAS 2AS CENTAUR R/B 3.1 07:48:41 56° S 07:50:22 71° ESE 07:58:13 10° NNE
Meteor 2-6 Rocket 4.4 07:51:22 10° N 07:57:04 70° E 07:57:58 59° SE
GPS 2-15 Rocket1 3.8 07:59:58 51° E 07:59:58 51° E 08:03:48 10° ENE
Cosmos 1515 Rocket 4.3 07:59:00 10° N 08:02:21 50° NNE 08:02:21 50° NNE
Cosmos 1125 Rocket 4.4 07:59:05 10° NNW 08:02:23 39° NNW 08:02:23 39° NNW
Centaur AC-112 3.1 08:05:05 66° SSE 08:05:06 66° SSE 08:16:56 10° ENE
Cosmos 2082 Rocket 2.3 08:06:49 59° NW 08:06:49 59° NW 08:11:52 10° N
FENGYUN 3A 3.8 08:04:50 10° NNE 08:10:14 73° ESE 08:11:36 50° S
ARIANE 5 R/B 4.4 08:06:35 10° NNW 08:08:15 18° NW 08:08:15 18° NW
Cosmos 1244 Rocket 4.4 08:13:30 55° SSW 08:14:53 75° W 08:21:06 10° N
Cosmos 1484 Rocket 3.9 08:12:17 10° NNE 08:15:44 36° E 08:16:19 34° ESE
ARIANE 5 R/B 3.8 08:17:46 34° SSE 08:17:46 34° SSE 08:20:38 10° ESE
RESURS DK-1 4.2 08:16:38 21° SE 08:18:11 26° ESE 08:21:39 10° NE
Cosmos 883 Rocket 4.3 08:13:19 10° N 08:19:22 67° W 08:21:05 47° SSW
ATLAS V CENTAUR R/B 3.8 08:19:37 39° WSW 08:22:45 88° S 08:26:05 10° ENE
Cosmos 1805 Rocket 4.5 08:32:37 33° NW 08:32:37 33° NW 08:35:39 10° NNW
Ariane H10 4.3 08:37:38 10° SSE 08:37:38 10° SSE 08:37:44 10° SSE
Skynet4D Del rocket 4.2 08:33:53 35° SSW 08:36:07 53° SSE 08:42:39 10° ENE
Cosmos 923 Rocket 3.9 08:34:38 41° SSW 08:36:25 74° WNW 08:41:39 10° N
SL-08 R/B 3.4 08:37:40 48° WSW 08:38:05 49° WSW 08:42:34 10° NNW
PSLV R/B 3.6 08:34:02 10° N 08:38:19 58° WNW 08:39:06 50° WSW
Stardust Del rocket 4.1 08:43:50 28° W 08:46:54 59° NNW 08:50:31 10° ENE
GPS 2-17 Rocket1 2.9 08:53:20 25° WNW 08:55:57 77° SSW 09:00:37 10° ESE
Cosmos 1470 Rocket 4.0 08:56:04 10° S 09:00:30 65° E 09:04:56 10° NNE
CZ-2C R/B 4.1 08:58:29 10° NW 09:00:52 14° WNW 09:00:52 14° WNW
Cosmos 1656 3.6 08:56:21 10° NNW 09:01:58 69° WSW 09:07:32 10° S
ISS -3.6 09:03:45 32° WSW 09:05:04 59° NW 09:08:23 10° NNE
Ariane H10+ 4.3 09:07:30 11° SSW 09:10:36 17° SSE 09:18:04 10° ESE
Cosmos 1933 Rocket 4.5 09:06:45 10° SSE 09:10:56 49° E 09:15:07 10° NNE
USA 281 4.0 09:06:54 10° SSW 09:12:17 27° WSW 09:17:42 10° NW
Cosmos 1666 Rocket 4.4 09:10:46 20° SW 09:12:48 29° W 09:16:33 10° NNW
Cosmos 2112 Rocket 4.3 09:08:53 15° SSW 09:13:00 49° WNW 09:18:08 10° N
GPS 2-14 Rocket1 3.0 09:11:46 19° W 09:14:20 54° NNW 09:18:03 10° ENE
Cosmos 1697 Rocket 3.1 09:09:10 10° N 09:14:46 66° ENE 09:20:22 10° SSE
IUS-1 SRM-2 4.3 08:55:17 10° WNW 09:20:22 58° SW 09:24:56 10° SE
Cosmos 1709 Rocket 3.9 09:14:21 10° S 09:20:28 80° W 09:26:33 10° N
Cosmos 1500 3.8 09:17:49 14° SW 09:20:30 34° W 09:23:54 10° NNW
Envisat 3.7 09:17:40 10° NNE 09:22:37 55° ESE 09:27:34 10° S
Delta 202 4.0 09:19:09 12° W 09:23:59 64° NNW 09:30:36 10° ENE
Meteor 1-5 Rocket 4.1 09:19:30 10° S 09:24:56 85° W 09:30:13 10° N
ALOS 4.1 09:24:10 10° NW 09:26:14 13° WNW 09:27:59 11° W
FALCON 9 R/B 0.9 09:26:39 14° W 09:27:55 33° NNW 09:30:50 10° NE
Cosmos 2228 Rocket 4.3 09:26:03 10° NW 09:29:26 22° W 09:32:48 10° SW
ADEOS 3.6 09:24:35 10° N 09:29:46 71° WNW 09:34:58 10° SSW
DELTA 4 R/B 2.1 09:33:09 10° SSW 09:34:38 19° SSE 09:35:57 10° ESE
YAOGAN 6 2.6 09:32:10 10° NNE 09:35:36 80° E 09:39:05 10° S
FALCON 9 DEB 3.9 09:33:07 10° WNW 09:36:04 28° WSW 09:39:02 10° S
SJ-12 4.4 09:33:23 10° N 09:37:11 41° WNW 09:40:59 10° SSW
Meteor PRIRODA 4.4 09:33:50 10° NNE 09:37:28 54° E 09:41:05 10° S
CZ-4C R/B 3.4 09:35:54 10° SSE 09:39:05 63° ENE 09:42:22 10° N
Ariane H10-3 2.5 09:39:06 10° WSW 09:41:26 53° S 09:47:21 10° E
SL-27 R/B 2.7 09:38:55 10° S 09:42:09 63° ESE 09:45:25 10° NNE
GPS 2-15 Rocket1 4.0 09:38:28 10° W 09:43:13 46° NNW 09:47:58 10° ENE
Cosmos 1340 Rocket 3.9 09:39:30 10° S 09:43:26 50° E 09:47:21 10° NNE
Cosmos 1980 Rocket 3.0 09:39:11 10° N 09:44:40 57° ENE 09:50:09 10° SSE
Meteor 1-19 Rocket 4.4 09:38:54 10° N 09:44:53 79° W 09:50:44 10° S
Cosmos 371 Rocket 3.2 09:40:11 10° NNW 09:44:58 80° WSW 09:49:45 10° S
ARIANE 44P R/B 4.1 09:42:06 10° WSW 09:47:27 22° S 09:49:56 10° SE
CZ-3A R/B 4.3 01:18:03 10° WSW 10:35:45 62° SW 10:40:43 10° SE
